Hourly Data Report for October 09, 2016

All times are specified in Local Standard Time (LST). Add 1 hour to adjust for Daylight Saving Time where and when it is observed.

FREDERICTON
NEW BRUNSWICK

45°52'08.000" N
66°32'14.000" W
20.70 m
8101505
71700
YFC

Download Data

Hourly Data (October 2016)
Hourly Data Report for October 9, 2016
Temp Definition
°C
Dew Point Temp Definition
°C
Rel Hum Definition
%
Wind Dir Definition
10's deg

Wind Spd Definition
km/h
Visibility Definition
km
Stn Press Definition
kPa
Hmdx Definition


Wind Chill Definition


Weather Definition


TIME
00:00 Legend Double Dagger 14.8 13.0 89 20 13 16.1 101.22     LegendNANA
01:00 Legend Double Dagger 15.8 13.7 87 19 11 16.1 101.21     LegendNANA
02:00 Legend Double Dagger 15.7 13.7 88 23 11 16.1 101.21     LegendNANA
03:00 Legend Double Dagger 15.5 14.1 91 22 17 16.1 101.18     Rain
04:00 Legend Double Dagger 15.3 14.2 93 21 13 16.1 101.21     LegendNANA
05:00 Legend Double Dagger 15.2 14.1 93 23 8 16.1 101.24     LegendNANA
06:00 Legend Double Dagger 15.3 11.9 80 30 17 16.1 101.29     LegendNANA
07:00 Legend Double Dagger 13.6 10.4 81 29 8 16.1 101.33     LegendNANA
08:00 Legend Double Dagger 13.1 9.9 81 24 5 16.1 101.39     Rain
09:00 Legend Double Dagger 13.2 9.4 78 27 9 16.1 101.48     LegendNANA
10:00 Legend Double Dagger 12.9 9.7 81 31 8 16.1 101.46     LegendNANA
11:00 Legend Double Dagger 12.4 10.6 89 30 8 16.1 101.51     Rain
12:00 Legend Double Dagger 12.4 9.7 83 1 13 16.1 101.50     Rain
13:00 Legend Double Dagger 12.5 9.4 81 34 9 16.1 101.47     LegendNANA
14:00 Legend Double Dagger 12.1 9.8 86 34 8 16.1 101.49     Rain
15:00 Legend Double Dagger 12.0 10.0 87   0 16.1 101.55     Rain
16:00 Legend Double Dagger 11.5 10.0 91 31 11 16.1 101.57     Rain
17:00 Legend Double Dagger 10.3 9.2 93 35 8 16.1 101.54     Rain
18:00 Legend Double Dagger 10.0 9.6 97 2 4 16.1 101.60     Rain
19:00 Legend Double Dagger 9.9 9.3 96   0 16.1 101.64     Rain
20:00 Legend Double Dagger 9.7 9.4 98 32 5 9.7 101.64     Rain,Fog
21:00 Legend Double Dagger 9.6 8.8 95 34 15 16.1 101.56     Rain
22:00 Legend Double Dagger 9.1 8.2 94 34 17 16.1 101.58     Moderate Rain
23:00 Legend Double Dagger 8.4 7.3 93 35 21 16.1 101.48     Rain

Notes on Data Quality.

Legend

  • E = Estimated
  • M = Missing
  • NA = Not Available
  • ‡ = Partner data that is not subject to review by the National Climate Archives
Date modified: